Flag for Germany Weather past 2 weeks in Kleve, North Rhine-Westphalia, Germany

Now
57 °F

Passing clouds.


Feels Like: 56 °F
Forecast: 49 / 62 °F
Wind: 6 mph from Northwest

Location: Niederrhein

Current Time: May 27, 2015 at 10:36:25 AM

Latest Report: May 27, 2015 at 9:50 AM


Visibility: N/A

Pressure: 30.27 "Hg

Humidity: 55%

Dew point: 41 °F

Location of KleveLocation

Historic Weather in Kleve — Graph

°F

Kleve temperature yesterday

Maximum temperature yesterday: 59 °F (at 2:50 PM)
Minimum temperature yesterday: 48 °F (at 4:20 AM)
Average temperature yesterday: 54 °F

Past Weeks' High & Low Weather Summary

 TemperatureHumidityPressure
High70 °F (May 12, 12:50 PM)100% (May 21, 4:50 AM)30.33 "Hg (May 21, 4:50 AM)
Low39 °F (May 14, 5:20 AM)35% (May 12, 12:50 PM)29.65 "Hg (May 18, 5:50 PM)
Average56 °F64%30.07 "Hg
* Reported May 12 9:20 AM — May 27 9:20 AM, Kleve, Weather by CustomWeather, © 2015

Note: Actual official high and low records may vary slightly from our data, if they occured in-between our weather recording intervals... More about our weather records

Advertising

Kleve weather history for previous 24 hours

 ConditionsComfort  
Time TempWeatherWind HumidityBarometerVisibility
9:20 AM
Wed, May 27
57 °FPassing clouds.6 mph55%30.27 "HgN/A
8:50 AM55 °FPassing clouds.5 mph63%30.27 "HgN/A
8:20 AM54 °FPassing clouds.6 mph67%30.27 "HgN/A
7:50 AM54 °FSunny.5 mph72%30.27 "Hg10 mi
7:20 AM50 °FClear.5 mph76%30.27 "Hg10 mi
6:50 AM46 °FClear.No wind87%30.27 "Hg10 mi
6:20 AM46 °FClear.No wind82%30.27 "Hg10 mi
5:50 AM46 °FClear.2 mph87%30.24 "Hg10 mi
5:20 AM48 °FClear.No wind82%30.27 "Hg10 mi
4:50 AM48 °FClear.No wind82%30.27 "Hg10 mi
11:50 PM
Tue, May 26
52 °FPassing clouds.3 mph62%30.24 "HgN/A
11:20 PM52 °FSunny.3 mph62%30.24 "Hg10 mi
10:50 PM54 °FPartly sunny.2 mph58%30.24 "HgN/A
10:20 PM54 °FPassing clouds.6 mph54%30.24 "HgN/A
9:50 PM54 °FPassing clouds.5 mph58%30.24 "HgN/A
9:20 PM54 °FPassing clouds.6 mph58%30.24 "HgN/A
8:50 PM55 °FPassing clouds.7 mph55%30.21 "HgN/A
8:20 PM55 °FPassing clouds.7 mph55%30.21 "HgN/A
7:50 PM55 °FPassing clouds.8 mph55%30.21 "HgN/A
7:20 PM57 °FPassing clouds.8 mph51%30.21 "HgN/A
6:50 PM57 °FPassing clouds.8 mph48%30.18 "HgN/A
6:20 PM57 °FPassing clouds.9 mph44%30.18 "HgN/A
5:50 PM59 °FSunny.9 mph45%30.18 "Hg10 mi
5:20 PM59 °FPassing clouds.8 mph45%30.18 "HgN/A
4:50 PM59 °FPassing clouds.12 mph45%30.15 "HgN/A
4:20 PM59 °FSunny.9 mph45%30.15 "Hg10 mi
3:50 PM59 °FPartly sunny.12 mph45%30.15 "HgN/A
3:20 PM59 °FBroken clouds.9 mph48%30.15 "HgN/A
2:50 PM59 °FPartly sunny.8 mph48%30.15 "HgN/A
2:20 PM57 °FPartly sunny.13 mph51%30.15 "HgN/A
1:50 PM57 °FScattered clouds.10 mph51%30.15 "HgN/A
1:20 PM57 °FPartly sunny.8 mph55%30.15 "HgN/A
12:50 PM54 °FPartly sunny.3 mph72%30.15 "HgN/A
12:20 PM52 °FSprinkles. Scattered clouds.6 mph72%30.15 "HgN/A
11:50 AM55 °FPartly sunny.9 mph55%30.12 "HgN/A
11:20 AM57 °FScattered clouds.9 mph55%30.12 "HgN/A
10:50 AM55 °FScattered clouds.10 mph59%30.12 "HgN/A
10:20 AM55 °FScattered clouds.8 mph59%30.12 "HgN/A
Weather by CustomWeather, © 2015

See weather overviewHow to use our weather pages